ATLAS 5 CENTAUR DEB, 49340

Orbit data source: Space-Track

ATLAS 5 CENTAUR DEB, 49340 is space debris in HEO originally from a launch on Wed, 17 Oct 2018 UTC launched from the Air Force Eastern Test Range (AFETR). Debris objects in space refer to the collection of defunct objects orbiting the Earth. Examples of debris include non-operational satellites, rocket bodies, and fragments generated from explosions, collisions, or faulty payload assembly.

Loading next visibility...
Identifier
49340, 2018-079ER
Orbit
HEO
Country
Flag of USUS
Related business
Flag of USUnited Launch Alliance/Lockheed Martin (US)
Manufacturer
ULA Decatur
Mission
Spacecraft
Bus & Motor
Unknown
Mass
Unknown
Launch date (UTC)
2018-10-17 (8 years ago)
Launch vehicle
Unknown
Launch site
Air Force Eastern Test Range (AFETR)
Object type
Payload
Rocket body
Debris
Shape & HBR
Unknown shape, 1.1 m
Radar Cross Section
RCS unknown

Expand to show TLE details & history
Last TLE update: 3 days ago

TLE from 3 days ago
0 ATLAS 5 CENTAUR DEB
1 49340U 18079ER  26170.31706930 -.00000107  00000-0  00000-0 0  9999
2 49340  13.7396  38.0265 4757516 300.7691  20.8008  1.76312801 30949
Epoch: 2026-06-19T07:36Z
TLE epoch observation values (Epoch: 2026-06-19T07:36:34.787Z)
Latitude
0.00009°
Longitude
16.31678°
Altitude
11,663.398 km
Speed
5.515 km/s
True Right ascension
02h 32m 02s
True Declination
0° 00' 00"
Sunlit
Object was in daylight at epoch
Visualization orbit readout
Latitude
Unknown
Longitude
Unknown
Altitude
Unknown
Speed
Unknown
Apparent Right ascension
Unknown
Apparent Declination
Unknown
Sunlit
N/A
Visualization observer readout
Local Sidereal Time
23:19:46
Azimuth
Unknown
Elevation
Unknown
Doppler factor
Unknown
Orbital elements
Apogee altitude
36,337.825 km
Perigee altitude
8,796.351 km
Semi-major axis
28,945.225 km
Eccentricity
0.47575
Inclination
13.7396°
RAAN
38.0265°
Arg. of periapsis
300.7691°
True anomaly
59.08677°
Mean anomaly
20.8008°
Eccentric anomaly
37.33084°
Mean motion
0.44074 °/min
Orbital period
816.82 mins
BSTAR
0
Loading maneuver chart data...
Computing Atmospheric mass density...

Documentation

Showing up to 5 results
|